Location: Baia Mare
(47.6567°N, 23.5850°E)
Time: 20:48:34
(UTC+03:00)

ISS - Pass Details

Date: 12 May 2018
Orbit: 402 x 407 km, 51.6° (Epoch: 27 May)

Event Time Altitude Azimuth Distance (km) Brightness Sun altitude
Exits shadow 04:45:42 - 277° (W) 1,748 -1.0 -10.0°
Reaches altitude 10° 04:46:27 10° 281° (W) 1,457 -1.4 -9.9°
Maximum altitude 04:49:34 41° 353° (N) 601 -2.7 -9.5°
Drops below altitude 10° 04:52:41 10° 66° (ENE) 1,460 0.4 -9.1°
Sets 04:54:51 0° 74° (ENE) 2,320 1.4 -8.9°
